Tracking 33197 objects as of 18-Feb-2026
HD Live streaming from Space Station
objects crossing your sky now

CRRES DEB (CANISTER)

Track CRRES DEB (CANISTER) now!


NORAD ID: 21588
Int'l Code: 1990-065D
Perigee: 375.1 km
Apogee: 32,200.5 km
Inclination: 18.1 °
Period: 565.7 minutes
Semi major axis: 22658 km
RCS: 0.1213 m2 (medium)
Launch date: July 25, 1990
Source: United States (US)
Launch site: AIR FORCE EASTERN TEST RANGE (AFETR)

Note: This is SATELLITE DEBRIS
Your satellite tracking list
Your tracking list is empty




NASA's NSSDC Master Catalog

Two Line Element Set (TLE):
1 21588U 90065D   26048.65795131  .00000427  00000-0  35714-3 0  9997
2 21588  18.0759 226.6581 7022733  27.0868 356.5462  2.54534493123153
Source of the keplerian elements: AFSPC